Regional Weather Roundup
Issued by NWS Charleston, WV

Home | Current Version | Previous Version | Graphics & Text | Print | Product List | Glossary On
Versions: 1 2 3 4 5 6 7 8 9 10 11 12 13 14 15 16 17 18 19 20 21 22 23 24 25 26 27 28 29 30 31 32 33 34 35 36 37 38 39 40 41 42 43 44 45 46 47 48 49 50
330
ASUS41 KRLX 181210
RWRRLX
West Virginia Regional Weather Roundup
National Weather Service Charleston WV
800 AM EDT WED APR 18 2018

Note: "fair" indicates few or no clouds below 12,000 feet with no
significant weather and/or obstructions to visibility.

WVZ003-181300-
Northern Panhandle of West Virginia

CITY           SKY/WX    TMP DP  RH WIND       PRES   REMARKS
WHEELING       FAIR      30  24  78 SW5       29.90S
$$

WVZ009-181300-
Northwest West Virginia

CITY           SKY/WX    TMP DP  RH WIND       PRES   REMARKS
PARKERSBURG    FAIR      28  25  88 CALM      29.96S
$$

WVZ006-181300-
Western West Virginia

CITY           SKY/WX    TMP DP  RH WIND       PRES   REMARKS
HUNTINGTON     FAIR      38  27  64 SE6       29.90F
$$

WVZ015-181300-
West Central West Virginia

CITY           SKY/WX    TMP DP  RH WIND       PRES   REMARKS
CHARLESTON     CLOUDY    38  31  76 NE3       29.90F
$$

WVZ022-031-181300-
North Central West Virginia

CITY           SKY/WX    TMP DP  RH WIND       PRES   REMARKS
CLARKSBURG     FAIR      30  26  85 CALM      29.92S
MORGANTOWN     FAIR      30  25  81 CALM      29.92S
$$

WVZ025-035-042-045-181300-
Southern West Virginia

CITY           SKY/WX    TMP DP  RH WIND       PRES   REMARKS
BECKLEY        PTSUNNY   41  35  79 CALM      29.88R
LOGAN          CLOUDY    39  32  75 CALM      29.88S
BLUEFIELD      CLOUDY    51  37  58 W6        29.88R
LEWISBURG      CLOUDY    41  33  72 SW5       29.90R
$$

WVZ047-181300-
Northern Mountains of West Virginia

CITY           SKY/WX    TMP DP  RH WIND       PRES   REMARKS
ELKINS         PTSUNNY   30  27  88 CALM      29.90R
$$

WVZ052-181300-
Eastern Panhandle of West Virginia

CITY           SKY/WX    TMP DP  RH WIND       PRES   REMARKS
MARTINSBURG    FAIR      35  25  66 SW6       29.93R
PETERSBURG     FAIR      32  25  75 E3        29.91S
$$




USA.gov is the U.S. government's official web portal to all federal, state and local government web resources and services.